CW8948 Weather Reports


time (UTC)temp
C
wind
direction
speed
KPH
gust
KPH
rain 1hr
cm
rain 24hr
cm
rain mn
cm
humidity
%
barometer
mb
20260502161633 16 273 4.8 11.3 0.00 0.00 0.00 34 1020.5
20260502160655 16 298 4.8 8.0 0.00 0.00 0.00 34 1020.5
20260502151625 14 5 4.8 8.0 0.00 0.00 0.00 34 1020.7
20260502150627 14 360 4.8 8.0 0.00 0.00 0.00 37 1020.7
20260502130618 7 88 0.0 0.0 0.00 0.00 0.00 57 1020.5
20260502123645 7 88 0.0 0.0 0.00 0.00 0.00 59 1020.3
20260502122623 7 88 1.6 3.2 0.00 0.00 0.00 60 1020.3
20260502121628 7 88 0.0 3.2 0.00 0.00 0.00 60 1020.1
20260502120643 7 88 0.0 4.8 0.00 0.00 0.00 61 1020.2
20260502115624 7 88 0.0 3.2 0.00 0.00 0.00 61 1020.0
20260502114625 7 88 0.0 3.2 0.00 0.00 0.00 61 1020.2
20260502113626 7 83 0.0 0.0 0.00 0.00 0.00 60 1020.2
20260502112632 7 83 0.0 4.8 0.00 0.00 0.00 60 1020.2
20260502111633 7 83 6.4 11.3 0.00 0.00 0.00 59 1020.2
20260502110616 7 313 1.6 6.4 0.00 0.00 0.00 58 1020.3
20260502105618 7 274 0.0 4.8 0.00 0.00 0.00 58 1020.3
20260502104624 7 274 3.2 9.7 0.00 0.00 0.00 56 1020.3
20260502103625 8 134 0.0 0.0 0.00 0.00 0.00 57 1020.3
20260502102647 8 134 0.0 0.0 0.00 0.00 0.00 57 1020.3
20260502101627 8 134 0.0 3.2 0.00 0.00 0.00 56 1020.2
20260502100626 8 135 3.2 6.4 0.00 0.00 0.00 57 1019.9
20260502090626 8 274 4.8 6.4 0.00 0.00 0.00 59 1019.8
20260502070625 10 65 1.6 4.8 0.00 0.00 0.00 55 1019.9
20260502065626 10 65 4.8 8.0 0.00 0.00 0.00 55 1019.8
20260502064627 10 167 1.6 4.8 0.00 0.00 0.00 53 1019.8
20260502063631 10 166 4.8 4.8 0.00 0.00 0.00 51 1019.7
20260502062633 10 175 0.0 0.0 0.00 0.00 0.00 52 1019.7
20260502061635 10 175 0.0 0.0 0.00 0.00 0.00 52 1019.8
20260502060652 11 175 0.0 4.8 0.00 0.00 0.00 55 1019.8
20260502055633 11 175 4.8 4.8 0.00 0.00 0.00 51 1019.7
20260502054654 12 155 0.0 3.2 0.00 0.00 0.00 44 1019.6
20260502053619 12 156 1.6 4.8 0.00 0.00 0.00 45 1019.7
20260502052620 13 135 0.0 3.2 0.00 0.00 0.00 38 1019.6
20260502051621 13 134 0.0 3.2 0.00 0.00 0.00 38 1019.6
20260502050643 13 135 1.6 4.8 0.00 0.00 0.00 38 1019.5
20260502045625 13 134 1.6 6.4 0.00 0.00 0.00 38 1019.6
20260502044629 13 135 3.2 6.4 0.00 0.00 0.00 38 1019.6
20260502043632 13 135 3.2 6.4 0.00 0.00 0.00 37 1019.6
20260502042652 13 136 3.2 8.0 0.00 0.00 0.00 38 1019.5
20260502041632 13 135 4.8 8.0 0.00 0.00 0.00 42 1019.5
20260502040618 14 126 4.8 6.4 0.00 0.00 0.00 41 1019.5
20260502035622 14 91 4.8 4.8 0.00 0.00 0.00 40 1019.4
20260502034642 15 53 0.0 3.2 0.00 0.00 0.00 40 1019.3
20260502033623 15 53 1.6 3.2 0.00 0.00 0.00 40 1019.2
20260502032625 15 53 0.0 0.0 0.00 0.00 0.00 40 1019.1
20260502031630 15 53 0.0 4.8 0.00 0.00 0.00 40 1019.0
20260502030632 15 53 1.6 6.4 0.00 0.00 0.00 39 1018.8
20260502025635 15 42 3.2 4.8 0.00 0.00 0.00 38 1018.7
20260502024617 15 349 1.6 3.2 0.00 0.00 0.00 38 1018.5
20260502023621 16 348 0.0 6.4 0.00 0.00 0.00 40 1018.5
20260502022624 16 351 4.8 8.0 0.00 0.00 0.00 37 1018.5
20260502021627 16 360 6.4 6.4 0.00 0.00 0.00 37 1018.4
20260502020629 17 14 6.4 16.1 0.00 0.00 0.00 37 1018.4
20260502015649 17 24 6.4 11.3 0.00 0.00 0.00 35 1018.3
20260502014628 18 276 3.2 6.4 0.00 0.00 0.00 37 1018.2
20260502013631 18 261 8.0 12.9 0.00 0.00 0.00 34 1018.1
20260502012632 18 269 6.4 16.1 0.00 0.00 0.00 33 1018.0
20260502011652 18 279 11.3 16.1 0.00 0.00 0.00 32 1018.0
20260502010631 18 283 12.9 19.3 0.00 0.00 0.00 32 1017.9
20260502005630 18 282 14.5 19.3 0.00 0.00 0.00 33 1017.9
20260502004635 18 284 11.3 19.3 0.00 0.00 0.00 31 1017.9
20260502003655 18 280 14.5 20.9 0.00 0.00 0.00 31 1017.8
20260502002635 18 286 9.7 22.5 0.00 0.00 0.00 32 1017.9
20260502001655 18 300 12.9 20.9 0.00 0.00 0.00 31 1018.1
20260502000628 18 302 16.1 22.5 0.00 0.00 0.00 31 1018.0
20260501235631 18 277 14.5 20.9 0.00 0.00 0.00 30 1018.1
20260501234618 18 320 14.5 20.9 0.00 0.00 0.00 32 1018.1
20260501233619 18 303 12.9 22.5 0.00 0.00 0.00 32 1018.2
20260501232622 18 328 14.5 24.1 0.00 0.00 0.00 31 1018.2
20260501231623 18 285 12.9 22.5 0.00 0.00 0.00 31 1018.2
20260501230630 18 313 14.5 25.7 0.00 0.00 0.00 31 1018.3
20260501225630 18 284 16.1 24.1 0.00 0.00 0.00 31 1018.3
20260501224631 18 297 17.7 27.4 0.00 0.00 0.00 30 1018.4
20260501223630 18 275 14.5 22.5 0.00 0.00 0.00 32 1018.5
20260501222631 18 305 12.9 24.1 0.00 0.00 0.00 30 1018.6
20260501221616 18 279 14.5 22.5 0.00 0.00 0.00 30 1018.7
20260501220640 18 265 12.9 24.1 0.00 0.00 0.00 29 1018.8
20260501215622 18 303 16.1 25.7 0.00 0.00 0.00 28 1018.9
20260501214622 18 294 17.7 24.1 0.00 0.00 0.00 28 1019.0
20260501213628 18 256 14.5 25.7 0.00 0.00 0.00 28 1019.0
20260501212628 18 266 16.1 27.4 0.00 0.00 0.00 28 1019.1
20260501211648 18 309 17.7 25.7 0.00 0.00 0.00 28 1019.1
20260501210627 18 284 16.1 25.7 0.00 0.00 0.00 28 1019.2
20260501205630 18 286 19.3 27.4 0.00 0.00 0.00 29 1019.1
20260501204631 18 273 16.1 24.1 0.00 0.00 0.00 26 1019.1
20260501203656 18 260 12.9 22.5 0.00 0.00 0.00 28 1019.0
20260501202617 18 327 14.5 22.5 0.00 0.00 0.00 25 1019.0
20260501201619 18 338 12.9 19.3 0.00 0.00 0.00 24 1019.1
20260501200620 17 308 16.1 22.5 0.00 0.00 0.00 25 1019.1
20260501195624 17 258 11.3 19.3 0.00 0.00 0.00 23 1019.1
20260501194625 17 277 14.5 22.5 0.00 0.00 0.00 24 1019.2
20260501193627 17 275 11.3 20.9 0.00 0.00 0.00 25 1019.3
20260501192629 17 311 14.5 19.3 0.00 0.00 0.00 23 1019.4
20260501191630 17 309 8.0 20.9 0.00 0.00 0.00 24 1019.5
20260501190617 17 325 11.3 17.7 0.00 0.00 0.00 21 1019.6
20260501185618 17 232 11.3 16.1 0.00 0.00 0.00 21 1019.8
20260501184639 16 261 9.7 16.1 0.00 0.00 0.00 21 1019.8
20260501183641 16 263 9.7 17.7 0.00 0.00 0.00 21 1020.0
20260501182621 16 192 9.7 20.9 0.00 0.00 0.00 20 1020.0
20260501181643 16 232 8.0 17.7 0.00 0.00 0.00 21 1020.2
20260501180634 16 293 9.7 16.1 0.00 0.00 0.00 20 1020.2
20260501175641 16 122 4.8 14.5 0.00 0.00 0.00 19 1020.3
20260501174621 16 53 3.2 20.9 0.00 0.00 0.00 22 1020.5
20260501173642 16 15 11.3 20.9 0.00 0.00 0.00 24 1020.5
20260501172641 15 79 6.4 25.7 0.00 0.00 0.00 22 1020.5
20260501171621 16 355 8.0 16.1 0.00 0.00 0.00 22 1020.6
20260501170624 15 240 4.8 16.1 0.00 0.00 0.00 25 1020.7
20260501165628 15 273 6.4 19.3 0.00 0.00 0.00 27 1020.6
20260501164627 15 73 3.2 12.9 0.00 0.00 0.00 23 1020.6
20260501163629 15 286 3.2 12.9 0.00 0.00 0.00 26 1020.6
20260501162630 15 59 1.6 8.0 0.00 0.00 0.00 25 1020.5